Weather History for Mineola, TX

Change the Weather History Date:

Sunday, November 18, 2012

  Actual Average (KTYR) Record (KTYR)
Temperature  
Mean Temperature 52 °F 55 °F  
Max Temperature 69 °F 64 °F 83 °F (1957)
Min Temperature 35 °F 45 °F 17 °F (1959)
Degree Days  
Heating Degree Days 13 11  
Month to date heating degree days 142  
Since 1 July heating degree days 219  
Cooling Degree Days 0 0  
Month to date cooling degree days 14  
Year to date cooling degree days 2407  
Growing Degree Days 2 (Base 50)    
Moisture  
Dew Point 37 °F    
Average Humidity 63    
Maximum Humidity 100    
Minimum Humidity 27    
Precipitation  
Precipitation 0.00 in 0.13 in 4.57 in (1969)
Month to date precipitation 2.60  
Year to date precipitation 40.05  
Snow  
Snow 0.00 in - - ()
Month to date snowfall  
Since 1 July snowfall  
Since 1 September snowfall  
Snow Depth -    
Sea Level Pressure  
Sea Level Pressure 30.29 in    
Wind  
Wind Speed 2 mph (SSE)    
Max Wind Speed 9 mph    
Max Gust Speed -    
Visibility 9 miles    
Events Rain    
T = Trace of Precipitation, MM = Missing Value Source: NWS Daily Summary

Daily Weather History Graph

Daily Weather History Graph

Search for Another Location

Airport:

Trip Planner

Search our weather history database for the weather conditions in past years. The results will help you decide how hot, cold, wet, or windy it might be!

Date:

Astronomy

Nov. 18, 2012 Rise Set
Actual Time 6:55 AM CST 5:19 PM CST
Civil Twilight 6:28 AM CST 5:45 PM CST
Nautical Twilight 5:59 AM CST 6:15 PM CST
Astronomical Twilight 5:29 AM CST 6:44 PM CST
Moon 11:26 AM CST (11/18) 10:34 PM CST (11/18)
Length of Visible Light 11h 16m
Length of Day
10h 23m
Waxing Crescent, 30% of the Moon is Illuminated
Nov 18
Waxing Crescent
Nov 20
First Quarter
Nov 28
Full
Dec 6
Last Quarter
Dec 13
New

Hourly Weather History & Observations

Time (CST) Temp. Dew Point Humidity Pressure Visibility Wind Dir Wind Speed Gust Speed Precip Events Conditions
12:15 AM 39.2 °F 37.4 °F 93% 30.33 in 10.0 mi Calm Calm - N/A   Clear
12:35 AM 39.2 °F 37.4 °F 93% 30.34 in 10.0 mi Calm Calm - N/A   Clear
12:55 AM 39.2 °F 37.4 °F 93% 30.33 in 10.0 mi Calm Calm - N/A   Clear
1:15 AM 37.4 °F 37.4 °F 100% 30.33 in 9.0 mi Calm Calm - N/A   Clear
1:35 AM 37.4 °F 35.6 °F 93% 30.33 in 9.0 mi Calm Calm - N/A   Clear
1:55 AM 37.4 °F 35.6 °F 93% 30.33 in 9.0 mi Calm Calm - N/A   Clear
2:15 AM 37.4 °F 35.6 °F 93% 30.33 in 9.0 mi Calm Calm - N/A   Clear
2:35 AM 37.4 °F 35.6 °F 93% 30.33 in 8.0 mi Calm Calm - N/A   Clear
2:55 AM 37.4 °F 35.6 °F 93% 30.32 in 9.0 mi Calm Calm - N/A   Clear
3:15 AM 37.4 °F 35.6 °F 93% 30.32 in 7.0 mi Calm Calm - N/A   Clear
3:35 AM 37.4 °F 35.6 °F 93% 30.32 in 8.0 mi Calm Calm - N/A   Clear
3:55 AM 37.4 °F 35.6 °F 93% 30.32 in 8.0 mi Calm Calm - N/A   Clear
4:15 AM 37.4 °F 35.6 °F 93% 30.31 in 8.0 mi Calm Calm - N/A   Clear
4:35 AM 35.6 °F 35.6 °F 100% 30.31 in 6.0 mi Calm Calm - N/A   Clear
4:55 AM 35.6 °F 35.6 °F 100% 30.32 in 6.0 mi Calm Calm - N/A   Clear
5:15 AM 35.6 °F 35.6 °F 100% 30.31 in 5.0 mi Calm Calm - N/A   Clear
5:35 AM 35.6 °F 35.6 °F 100% 30.31 in 5.0 mi Calm Calm - N/A   Clear
6:15 AM 35.6 °F 35.6 °F 100% 30.32 in 7.0 mi Calm Calm - N/A   Clear
6:35 AM 35.6 °F 35.6 °F 100% 30.31 in 8.0 mi Calm Calm - N/A   Clear
6:55 AM 37.4 °F 35.6 °F 93% 30.32 in 7.0 mi Calm Calm - N/A   Clear
7:15 AM 35.6 °F 35.6 °F 100% 30.32 in 5.0 mi Calm Calm - N/A   Clear
7:35 AM 35.6 °F 35.6 °F 100% 30.34 in 8.0 mi Calm Calm - N/A   Clear
7:55 AM 37.4 °F 35.6 °F 93% 30.34 in 7.0 mi Calm Calm - N/A   Clear
8:15 AM 41.0 °F 39.2 °F 93% 30.34 in 8.0 mi Calm Calm - N/A   Clear
8:35 AM 44.6 °F 39.2 °F 81% 30.35 in 9.0 mi Calm Calm - N/A   Clear
8:55 AM 46.4 °F 39.2 °F 76% 30.35 in 9.0 mi Calm Calm - N/A   Clear
9:15 AM 48.2 °F 41.0 °F 76% 30.35 in 10.0 mi ESE 4.6 mph - N/A   Clear
9:35 AM 51.8 °F 39.2 °F 62% 30.35 in 9.0 mi SE 6.9 mph - N/A   Clear
9:55 AM 55.4 °F 39.2 °F 54% 30.34 in 8.0 mi SE 5.8 mph - N/A   Clear
10:15 AM 57.2 °F 37.4 °F 48% 30.34 in 10.0 mi SE 3.5 mph - N/A   Clear
10:35 AM 60.8 °F 37.4 °F 42% 30.34 in 10.0 mi South 4.6 mph - N/A   Clear
10:55 AM 62.6 °F 35.6 °F 37% 30.34 in 10.0 mi South 8.1 mph - N/A   Clear
11:15 AM 62.6 °F 37.4 °F 39% 30.34 in 10.0 mi SSE 6.9 mph - N/A   Clear
11:35 AM 64.4 °F 37.4 °F 37% 30.33 in 10.0 mi South 6.9 mph - N/A   Clear
11:55 AM 64.4 °F 35.6 °F 34% 30.31 in 10.0 mi South 9.2 mph - N/A   Clear
12:15 PM 66.2 °F 35.6 °F 32% 30.30 in 10.0 mi Calm Calm - N/A   Clear
12:35 PM 66.2 °F 35.6 °F 32% 30.29 in 10.0 mi SE 4.6 mph - N/A Rain Light Rain
12:55 PM 66.2 °F 35.6 °F 32% 30.29 in 10.0 mi SSE 3.5 mph - N/A Rain Light Rain
1:15 PM 68.0 °F 35.6 °F 30% 30.27 in 10.0 mi South 6.9 mph - N/A Rain Light Rain
1:35 PM 69.8 °F 33.8 °F 27% 30.26 in 10.0 mi South 4.6 mph - N/A   Partly Cloudy
1:55 PM 69.8 °F 33.8 °F 27% 30.25 in 10.0 mi SSE 4.6 mph - N/A   Partly Cloudy
2:15 PM 68.0 °F 33.8 °F 28% 30.25 in 10.0 mi SSE 3.5 mph - N/A Rain Light Rain
2:35 PM 69.8 °F 33.8 °F 27% 30.25 in 10.0 mi SE 6.9 mph - N/A Rain Light Rain
2:55 PM 69.8 °F 33.8 °F 27% 30.24 in 8.0 mi SE 8.1 mph - N/A Rain Light Rain
3:15 PM 69.8 °F 33.8 °F 27% 30.23 in 10.0 mi SSE 6.9 mph - N/A Rain Light Rain
3:35 PM 69.8 °F 33.8 °F 27% 30.23 in 10.0 mi SE 6.9 mph - N/A Rain Light Rain
3:55 PM 68.0 °F 33.8 °F 28% 30.23 in 10.0 mi SSE 6.9 mph - N/A Rain Light Rain
4:15 PM 69.8 °F 35.6 °F 28% 30.23 in 10.0 mi SE 3.5 mph - N/A   Clear
4:35 PM 68.0 °F 35.6 °F 30% 30.24 in 10.0 mi SSE 3.5 mph - N/A   Clear
4:55 PM 66.2 °F 35.6 °F 32% 30.24 in 10.0 mi SSE 3.5 mph - N/A   Clear
5:15 PM 62.6 °F 35.6 °F 37% 30.24 in 10.0 mi Calm Calm - N/A   Clear
5:35 PM 59.0 °F 39.2 °F 48% 30.24 in 9.0 mi Calm Calm - N/A   Clear
5:55 PM 55.4 °F 37.4 °F 51% 30.24 in 10.0 mi Calm Calm - N/A   Clear
6:15 PM 55.4 °F 37.4 °F 51% 30.24 in 10.0 mi SSE 3.5 mph - N/A   Clear
6:35 PM 55.4 °F 37.4 °F 51% 30.24 in 10.0 mi Calm Calm - N/A   Clear
6:55 PM 53.6 °F 37.4 °F 54% 30.25 in 10.0 mi SE 3.5 mph - N/A   Clear
7:15 PM 55.4 °F 37.4 °F 51% 30.25 in 10.0 mi Calm Calm - N/A   Clear
7:35 PM 51.8 °F 39.2 °F 62% 30.26 in 10.0 mi Calm Calm - N/A   Clear
7:55 PM 51.8 °F 37.4 °F 58% 30.26 in 10.0 mi Calm Calm - N/A   Clear
8:15 PM 50.0 °F 39.2 °F 66% 30.27 in 10.0 mi Calm Calm - N/A   Clear
8:35 PM 48.2 °F 39.2 °F 71% 30.27 in 10.0 mi Calm Calm - N/A   Light Drizzle
8:55 PM 48.2 °F 41.0 °F 76% 30.27 in 10.0 mi Calm Calm - N/A   Clear
9:15 PM 51.8 °F 39.2 °F 62% 30.27 in 10.0 mi SE 3.5 mph - N/A   Clear
9:35 PM 55.4 °F 37.4 °F 51% 30.27 in 10.0 mi SE 4.6 mph - N/A   Clear
9:55 PM 57.2 °F 37.4 °F 48% 30.26 in 10.0 mi SE 4.6 mph - N/A   Clear
10:15 PM 57.2 °F 37.4 °F 48% 30.26 in 10.0 mi SE 4.6 mph - N/A   Clear
10:35 PM 57.2 °F 37.4 °F 48% 30.26 in 10.0 mi SE 6.9 mph - N/A   Clear
11:15 PM 57.2 °F 37.4 °F 48% 30.26 in 10.0 mi ESE 4.6 mph - N/A   Clear
11:35 PM 55.4 °F 37.4 °F 51% 30.26 in 10.0 mi SE 4.6 mph - N/A   Clear